Marianna, FL

10:03 AM CDT on September 23, 2017 (GMT -0500)
Marianna Municipal

Weather History for KMAI - July, 2013

Change the Weather History Date:

Sunday, July 7, 2013

  Actual Average Record
Temperature  
Mean Temperature 79 °F 82 °F  
Max Temperature 87 °F 92 °F 102 °F (2000)
Min Temperature 70 °F 72 °F 70 °F (2013)
Degree Days  
Heating Degree Days 0    
Month to date heating degree days 0  
Since 1 June heating degree days 0  
Since 1 July heating degree days 0  
Cooling Degree Days 14    
Month to date cooling degree days 85  
Year to date cooling degree days 970  
Since 1 June cooling degree days 534  
Growing Degree Days 29 (Base 50)    
Moisture  
Dew Point 73 °F    
Average Humidity 81    
Maximum Humidity 100    
Minimum Humidity 61    
Precipitation  
Precipitation 0.62 in 0.17 in 1.18 in (2001)
Month to date precipitation 5.75 1.27  
Year to date precipitation 30.75 29.06  
Sea Level Pressure  
Sea Level Pressure 30.11 in    
Wind  
Wind Speed 3 mph (ESE)    
Max Wind Speed 31 mph    
Max Gust Speed 40 mph    
Visibility 7 miles    
Events Fog , Rain , Thunderstorm    
T = Trace of Precipitation, MM = Missing Value Source: NWS Daily Summary

Daily Weather History Graph

Daily Weather History Graph

Search for Another Location

Airport or City:

Trip Planner

Search our weather history database for the weather conditions in past years. The results will help you decide how hot, cold, wet, or windy it might be!

Date:

Astronomy

Jul. 07, 2013 Rise Set
Actual Time 5:43 AM CDT 7:47 PM CDT
Civil Twilight 5:16 AM CDT 8:14 PM CDT
Nautical Twilight 4:43 AM CDT 8:48 PM CDT
Astronomical Twilight 4:07 AM CDT 9:23 PM CDT
Moon 5:15 AM CDT (7/7) 7:15 PM CDT (7/7)
Length of Visible Light 14h 58m
Length of Day
14h 03m
Waning Crescent, 0% of the Moon is Illuminated
Jul 7
Waning Crescent
Jul 8
New
Jul 15
First Quarter
Jul 22
Full
Jul 29
Last Quarter

Hourly Weather History & Observations

Time (CDT) Temp. Heat Index Dew Point Humidity Pressure Visibility Wind Dir Wind Speed Gust Speed Precip Events Conditions
12:12 AM 73.4 °F - 73.4 °F 100% 30.10 in 3.0 mi Calm Calm - N/A   Overcast
12:53 AM 73.0 °F - 72.0 °F 96% 30.10 in 10.0 mi ESE 3.5 mph - 0.02 in   Overcast
1:18 AM 71.6 °F - 71.6 °F 100% 30.10 in 10.0 mi East 3.5 mph - 0.01 in   Partly Cloudy
1:53 AM 72.0 °F - 71.1 °F 97% 30.09 in 10.0 mi Calm Calm - 0.02 in   Clear
2:53 AM 72.0 °F - 71.1 °F 97% 30.08 in 10.0 mi Calm Calm - 0.02 in   Clear
3:53 AM 71.1 °F - 70.0 °F 96% 30.08 in 10.0 mi Calm Calm - 0.02 in   Clear
4:53 AM 71.1 °F - 70.0 °F 96% 30.08 in 10.0 mi Calm Calm - 0.02 in   Clear
5:26 AM 71.6 °F - 69.8 °F 94% 30.08 in 10.0 mi Calm Calm - N/A   Scattered Clouds
5:36 AM 71.6 °F - 69.8 °F 94% 30.08 in 9.0 mi Calm Calm - 0.01 in   Mostly Cloudy
5:53 AM 71.1 °F - 70.0 °F 96% 30.08 in 9.0 mi Calm Calm - 0.01 in   Overcast
6:53 AM 72.0 °F - 71.1 °F 97% 30.10 in 6.0 mi Calm Calm - 0.02 in   Mostly Cloudy
7:28 AM 73.4 °F - 73.4 °F 100% 30.11 in 10.0 mi East 3.5 mph - 0.01 in   Partly Cloudy
7:53 AM 75.9 °F - 73.0 °F 91% 30.11 in 10.0 mi East 5.8 mph - 0.01 in   Clear
8:53 AM 80.1 °F 84.5 °F 73.9 °F 81% 30.12 in 10.0 mi SE 3.5 mph - 0.02 in   Clear
9:53 AM 84.0 °F 90.2 °F 73.0 °F 69% 30.12 in 10.0 mi ESE 4.6 mph - 0.01 in   Mostly Cloudy
10:53 AM 86.0 °F 92.2 °F 72.0 °F 63% 30.12 in 10.0 mi East 8.1 mph - 0.02 in   Scattered Clouds
11:53 AM 84.9 °F 90.7 °F 72.0 °F 65% 30.11 in 10.0 mi East 4.6 mph - 0.01 in   Mostly Cloudy
12:18 PM 80.6 °F 85.4 °F 73.4 °F 79% 30.13 in 1.8 mi Variable 5.8 mph 16.1 mph 0.00 in Rain Heavy Rain
12:28 PM 78.8 °F - 73.4 °F 83% 30.12 in 0.8 mi North 8.1 mph - N/A Rain Light Rain
12:32 PM 78.8 °F - 73.4 °F 83% 30.11 in 3.0 mi North 6.9 mph - N/A Rain Light Rain
12:53 PM 81.0 °F 86.2 °F 73.9 °F 79% 30.11 in 3.0 mi South 11.5 mph 16.1 mph N/A Rain Heavy Rain
12:56 PM 78.8 °F - 73.4 °F 83% 30.11 in 1.8 mi Calm Calm - 0.00 in Rain Heavy Rain
1:06 PM 78.8 °F - 75.2 °F 89% 30.11 in 3.0 mi North 6.9 mph - N/A Rain Heavy Rain
1:53 PM 84.9 °F 93.3 °F 75.0 °F 72% 30.08 in 10.0 mi North 5.8 mph - N/A   Partly Cloudy
2:21 PM 87.8 °F 97.6 °F 75.2 °F 66% 30.07 in 10.0 mi NNW 4.6 mph - N/A Thunderstorm Thunderstorm
2:42 PM 77.0 °F - 73.4 °F 89% 30.11 in 1.0 mi South 29.9 mph 36.8 mph 0.01 in Rain , Thunderstorm Thunderstorms and Rain
2:49 PM 73.4 °F - 73.4 °F 100% 30.11 in 0.2 mi SSW 26.5 mph 40.3 mph 0.01 in Fog , Rain , Thunderstorm Heavy Thunderstorms and Rain
2:53 PM 73.0 °F - 72.0 °F 96% 30.11 in 0.2 mi SW 21.9 mph 39.1 mph 0.01 in Fog , Rain , Thunderstorm Heavy Thunderstorms and Rain
2:57 PM 73.4 °F - 71.6 °F 94% 30.11 in 0.5 mi SW 19.6 mph - 0.00 in Fog , Rain , Thunderstorm Heavy Thunderstorms and Rain
3:08 PM 73.4 °F - 71.6 °F 94% 30.11 in 1.8 mi WSW 16.1 mph 25.3 mph N/A Rain , Thunderstorm Heavy Thunderstorms and Rain
3:12 PM 73.4 °F - 71.6 °F 94% 30.11 in 3.0 mi WSW 11.5 mph 25.3 mph N/A Rain , Thunderstorm Thunderstorms and Rain
3:22 PM 73.4 °F - 71.6 °F 94% 30.10 in 10.0 mi SW 8.1 mph - N/A Rain , Thunderstorm Light Thunderstorms and Rain
3:53 PM 73.9 °F - 72.0 °F 93% 30.09 in 10.0 mi East 3.5 mph - N/A Thunderstorm Mostly Cloudy
4:04 PM 73.4 °F - 71.6 °F 94% 30.10 in 10.0 mi Calm Calm - 0.01 in   Mostly Cloudy
4:27 PM 73.4 °F - 71.6 °F 94% 30.10 in 10.0 mi ENE 3.5 mph - 0.03 in   Overcast
4:53 PM 75.0 °F - 73.0 °F 94% 30.09 in 10.0 mi East 3.5 mph - 0.05 in Rain Light Rain
5:53 PM 75.9 °F - 73.9 °F 94% 30.09 in 10.0 mi East 3.5 mph - 0.05 in   Overcast
6:53 PM 75.9 °F - 73.9 °F 94% 30.10 in 10.0 mi Calm Calm - 0.04 in   Mostly Cloudy
7:53 PM 75.9 °F - 73.9 °F 94% 30.12 in 10.0 mi ENE 3.5 mph - 0.05 in   Partly Cloudy
8:53 PM 75.0 °F - 73.9 °F 96% 30.12 in 10.0 mi Calm Calm - 0.03 in   Clear
9:53 PM 75.0 °F - 73.9 °F 96% 30.13 in 8.0 mi Calm Calm - 0.04 in   Partly Cloudy
10:53 PM 73.9 °F - 73.0 °F 97% 30.13 in 8.0 mi Calm Calm - 0.04 in   Clear
11:02 PM 73.4 °F - 73.4 °F 100% 30.13 in 9.0 mi Calm Calm - N/A   Scattered Clouds
11:10 PM 73.4 °F - 73.4 °F 100% 30.13 in 9.0 mi Calm Calm - 0.01 in   Mostly Cloudy
11:42 PM 73.4 °F - 73.4 °F 100% 30.14 in 1.5 mi NE 4.6 mph - 0.02 in   Overcast
11:51 PM 73.4 °F - 73.4 °F 100% 30.14 in 0.2 mi Calm Calm - 0.03 in Fog Fog
11:53 PM 73.9 °F - 73.9 °F 100% 30.14 in 0.2 mi Calm Calm - 0.03 in Fog Fog